EHI
1 1 0 0 0 0 0 0 0 1 1 1 0 0 0 0 0 0 0 6 16 15 7 3 4 4 2 1 1 2 2 2 1 2 2 2 1 0 0 0 0 0 0 0 0 0 0 0 0
1 0 0 0 0 0 0 0 1 1 1 1 0 0 0 1 1 0 1 8 18 16 8 5 7 7 5 3 2 2 1 1 0 1 1 1 0 0 0 0 0 0 0 0 0 0 0 0 0
0 0 0 0 0 0 0 1 3 3 2 2 2 1 1 3 4 3 4 12 19 16 10 10 13 12 8 5 3 1 0 0 0 0 0 0 0 0 0 0 0 0 0 0 0 0 0 0 0
0 0 0 0 1 0 0 2 5 6 4 4 5 4 3 6 10 10 11 16 20 16 12 14 18 16 11 8 4 1 0 0 0 0 0 0 0 0 0 0 0 0 0 0 0 0 0 0 0
0 0 0 0 0 0 1 4 8 8 6 5 6 5 6 12 18 16 13 16 20 18 13 15 19 18 13 10 6 2 0 0 0 0 0 0 0 0 0 0 0 0 0 0 0 0 0 0 0
0 0 0 0 0 0 1 5 8 9 8 7 6 5 8 18 23 17 11 13 17 18 15 13 15 16 13 11 8 4 1 0 0 0 0 0 0 0 0 0 0 0 0 0 0 0 0 0 0
0 0 0 0 0 0 1 3 7 10 10 7 6 6 9 20 25 19 12 11 14 16 15 12 11 11 10 10 8 5 2 1 0 0 0 0 0 0 0 0 0 0 0 0 0 0 0 0 0
0 0 0 0 0 0 2 3 6 10 10 6 5 6 11 24 33 31 21 15 13 15 14 12 10 8 6 6 7 6 3 2 0 0 0 0 0 0 0 0 0 0 0 0 0 0 0 0 0
0 0 0 0 0 0 2 4 5 8 11 8 6 9 18 35 49 48 37 25 20 16 14 13 11 8 5 4 5 5 3 2 1 0 0 0 0 0 0 0 0 0 0 0 0 0 0 0 0
0 0 0 0 0 0 2 2 3 7 12 14 12 15 27 45 59 61 50 37 28 22 16 14 13 11 7 4 4 3 2 1 1 1 1 1 1 0 0 0 0 0 0 0 0 0 0 0 0
0 0 0 0 0 0 1 1 3 7 11 16 18 20 28 43 57 62 55 43 33 26 19 13 12 12 8 4 3 2 1 1 1 1 1 1 1 0 0 0 0 0 0 0 0 0 0 0 0
0 0 0 0 0 0 1 2 4 8 12 17 20 21 25 33 45 54 54 46 37 29 20 13 10 9 6 4 3 2 1 0 0 0 0 0 0 0 0 0 0 0 0 0 0 0 0 0 0
0 0 0 0 1 1 3 6 9 15 20 24 24 22 20 23 31 45 54 53 46 37 27 18 13 10 6 5 4 2 0 0 0 0 0 0 0 0 0 0 0 0 0 0 0 0 0 0 0
0 0 0 1 2 3 6 11 17 23 29 31 29 24 20 20 28 43 57 60 56 50 41 32 25 18 12 8 6 3 1 1 0 0 0 0 0 0 0 0 0 0 0 0 0 0 0 0 0
0 0 1 2 3 4 6 12 20 29 35 36 34 29 24 26 35 49 60 64 64 62 55 48 41 32 21 14 10 6 4 3 2 1 0 0 1 2 1 1 1 0 0 0 0 0 0 0 0
0 0 1 2 3 3 4 10 20 32 41 41 37 33 30 32 41 54 63 67 70 70 65 60 54 45 32 24 18 13 9 6 4 3 1 1 3 4 4 3 2 1 0 0 0 0 0 0 0
0 0 0 1 2 1 2 7 18 33 46 47 41 38 36 37 46 58 67 72 73 73 69 66 61 53 42 34 28 21 14 9 7 4 3 4 5 6 5 4 3 2 1 0 0 0 0 0 0
0 0 0 0 0 0 2 7 18 33 45 50 48 45 43 46 53 62 70 74 75 72 68 66 63 57 47 38 32 26 18 13 10 8 7 8 8 8 7 5 3 2 1 0 0 0 0 0 0
0 0 0 0 0 1 3 7 16 28 39 48 50 51 53 55 59 66 72 76 76 73 68 65 63 58 48 37 30 26 21 15 11 10 9 10 11 11 8 5 3 2 1 0 0 0 0 0 0
0 0 0 0 1 2 4 7 13 22 32 42 49 54 59 62 63 68 72 76 76 74 70 65 61 57 46 34 25 22 18 12 9 9 9 9 11 12 9 5 3 2 1 0 0 0 0 0 0
0 0 0 0 1 2 3 4 9 17 28 39 47 55 62 64 64 67 72 75 75 74 70 62 57 52 45 35 25 18 15 11 8 7 8 8 9 10 9 6 4 3 1 0 0 0 0 0 0
0 0 0 0 0 1 1 1 5 14 25 35 44 54 62 64 63 66 72 74 73 71 67 60 53 47 43 38 28 19 14 11 6 5 6 7 8 9 9 7 5 3 1 0 0 0 0 0 0
0 0 0 0 0 0 0 0 3 11 21 29 38 50 60 62 62 65 68 70 70 66 62 57 50 43 38 36 28 17 11 7 3 2 2 4 6 9 11 9 5 3 2 1 0 0 0 0 0
0 0 0 0 0 0 0 0 2 8 17 25 34 46 55 57 57 59 60 61 62 60 56 51 45 37 32 29 23 15 8 4 1 0 0 1 4 8 11 10 6 3 2 1 0 0 0 0 0
0 0 0 0 0 0 0 0 1 6 14 23 32 42 48 50 49 49 50 52 53 51 47 42 37 33 29 25 21 16 10 6 3 1 0 0 2 6 10 10 7 4 3 2 1 0 0 0 0
0 0 0 0 0 0 0 0 2 7 15 23 31 38 42 41 39 39 41 43 43 41 38 35 30 29 29 28 24 19 13 9 6 4 2 1 1 4 7 7 4 3 3 3 2 0 0 0 0
0 0 0 0 0 0 0 0 3 9 18 25 31 36 38 34 33 33 33 33 33 32 32 30 27 26 27 27 26 22 15 11 8 6 4 3 3 3 4 3 2 1 3 3 2 1 0 0 0
0 0 0 0 0 0 0 0 3 10 20 28 32 34 34 34 34 32 28 25 26 27 27 27 25 23 23 23 22 19 14 10 7 5 5 4 4 3 3 2 1 1 2 3 2 1 0 0 0
0 0 0 0 0 0 0 0 3 11 22 30 32 32 34 38 39 34 27 22 22 23 24 24 23 23 21 18 15 12 11 10 8 5 4 4 4 4 3 3 1 0 1 3 2 1 0 0 0
0 0 0 0 0 0 0 1 4 14 25 31 32 32 35 41 42 35 29 23 19 19 22 23 23 22 19 16 11 9 9 10 9 6 4 3 4 4 4 4 2 1 1 2 2 1 0 0 0
Wind_Speed
4 3 1 1 4 4 2 2 7 8 6 8 9 10 9 7 5 7 5 13 16 13 11 15 17 17 17 16 16 16 15 15 15 15 15 15 15 15 15 16 15 16 16 16 15 16 16 16 16
2 2 2 3 5 3 1 4 9 9 8 11 11 11 10 9 10 11 8 14 16 13 10 12 17 17 17 16 16 15 15 15 14 14 14 14 14 15 15 15 15 15 15 15 15 15 15 15 14
2 0 3 4 2 1 1 5 10 11 8 8 7 7 7 9 10 7 10 16 14 12 9 13 18 17 17 16 15 15 15 14 14 14 14 14 14 14 15 15 14 14 14 14 14 13 13 13 13
1 3 4 4 2 3 3 4 10 11 9 8 8 7 6 7 8 13 17 16 14 10 9 13 18 17 17 16 15 15 14 14 14 14 13 13 14 14 14 14 14 14 14 13 13 12 12 11 11
3 4 5 3 3 2 1 5 11 11 7 8 10 8 6 7 18 20 17 16 14 10 8 11 18 17 17 16 16 15 14 14 14 13 13 13 13 13 14 14 13 13 13 12 11 11 10 10 9
4 4 4 2 4 3 1 6 11 15 12 9 9 7 5 13 18 17 16 14 14 12 9 10 17 17 17 16 16 15 14 14 14 13 13 13 13 13 13 13 13 13 12 11 10 10 9 8 8
4 3 1 2 1 1 4 6 11 13 10 7 8 8 7 11 15 16 14 14 13 12 9 7 9 12 16 16 15 15 14 14 13 13 13 13 13 13 13 12 12 12 11 10 9 8 8 7 6
5 4 1 2 2 2 4 5 10 14 9 9 8 9 10 13 14 14 13 12 11 10 8 7 7 7 7 9 15 15 14 14 13 13 13 13 13 13 12 11 11 11 10 9 8 7 6 5 5
3 4 2 4 4 2 5 7 6 7 9 5 4 7 14 18 18 16 13 11 10 10 7 7 7 6 6 6 11 12 13 13 12 11 14 11 5 6 7 9 11 11 10 9 7 6 5 3 3
4 4 7 6 5 4 7 9 8 7 7 6 8 10 16 18 18 18 16 15 12 11 9 8 8 8 7 7 6 4 5 6 5 4 6 4 4 4 6 8 10 10 9 8 6 5 3 2 1
4 6 6 5 5 4 5 6 6 11 7 10 16 17 17 17 16 16 15 15 15 14 12 10 10 9 7 5 5 3 3 3 4 5 5 4 3 3 3 2 4 4 5 2 3 2 1 1 1
4 7 6 4 3 3 4 5 6 7 9 13 17 18 17 16 15 15 15 14 13 14 13 12 11 10 8 7 5 4 4 4 4 5 6 4 3 3 3 2 2 2 1 2 1 1 1 1 1
4 5 4 3 1 3 5 5 6 6 10 13 14 14 14 13 12 11 12 13 12 12 12 12 11 11 9 7 6 6 5 5 5 4 5 6 5 5 4 3 2 3 2 2 2 2 2 2 2
5 5 4 2 1 2 6 4 6 7 13 15 14 12 12 12 12 11 12 12 12 13 12 11 11 10 9 7 6 6 5 5 5 5 6 7 5 5 5 4 3 3 3 3 3 3 2 2 2
4 5 6 1 1 1 6 4 6 10 14 14 13 11 11 10 11 13 14 13 12 13 12 11 11 10 10 9 7 6 6 6 5 5 6 7 6 6 5 4 4 3 3 3 2 2 2 2 3
5 3 3 5 2 3 6 3 6 11 16 14 12 11 10 9 10 12 12 10 10 12 12 11 11 10 9 8 7 6 5 6 5 5 5 6 7 7 5 4 4 3 3 3 3 2 2 2 2
4 1 3 6 3 3 6 4 6 10 16 14 12 11 10 9 8 10 12 11 11 12 12 10 9 10 8 7 5 5 5 5 5 5 5 5 6 7 5 4 4 4 3 3 3 2 2 2 2
4 3 4 5 3 3 4 5 8 10 13 13 11 10 10 10 10 10 11 11 10 10 11 10 9 8 7 5 4 3 3 4 4 5 5 6 5 6 5 4 4 4 3 3 2 3 2 2 2
5 6 7 8 4 3 5 6 9 10 10 11 10 10 9 9 7 8 10 10 10 9 9 9 9 8 6 4 4 4 4 3 4 4 6 7 7 6 5 4 4 4 4 4 4 3 3 2 2
7 7 7 6 3 2 4 5 6 9 12 13 12 11 11 8 6 6 7 9 10 10 10 9 9 9 7 5 4 3 3 3 4 4 5 7 7 7 6 5 4 4 4 4 4 4 3 1 2
8 5 5 4 4 4 3 3 0 2 4 7 9 10 11 12 12 10 10 9 9 10 10 9 8 8 7 6 4 3 2 2 2 3 4 5 7 7 6 6 5 5 5 5 5 5 5 3 1
8 8 5 2 2 2 3 1 5 2 3 7 9 9 10 10 11 10 10 9 9 9 8 7 8 7 7 7 6 6 5 4 4 4 4 5 6 7 6 6 6 5 5 5 5 5 4 4 2
8 7 2 0 2 2 3 3 5 0 3 6 8 10 11 10 11 10 10 9 7 8 8 7 8 7 7 7 7 6 5 4 3 3 4 5 5 6 7 7 6 6 5 5 5 4 4 4 4
5 2 6 6 6 2 3 3 4 4 7 8 8 9 10 9 9 8 6 6 6 6 6 7 8 7 7 7 6 6 6 5 4 4 5 4 4 4 6 6 6 6 5 6 5 5 5 4 4
2 6 5 5 5 5 4 3 7 7 6 10 11 9 9 9 9 8 7 7 7 7 6 6 7 6 6 6 6 6 6 6 6 6 6 5 4 4 6 6 6 5 5 6 6 5 5 5 4
5 10 8 5 4 4 3 2 5 2 4 7 8 8 9 8 8 8 7 7 7 8 7 6 6 5 6 6 5 5 5 4 4 5 5 5 5 5 6 7 6 6 6 6 6 5 5 4 5
6 5 10 8 2 0 4 3 5 4 6 6 7 7 7 9 9 8 7 6 6 6 6 7 6 5 5 5 5 5 5 4 4 4 4 4 4 4 6 6 7 6 6 6 6 4 5 4 5
9 8 6 6 4 2 3 2 4 2 4 5 6 6 5 6 7 7 7 6 5 5 5 5 5 5 4 4 4 4 4 4 3 3 3 3 4 4 5 6 6 6 5 5 5 4 4 4 4
4 5 6 5 6 7 3 6 6 8 8 8 7 5 6 6 7 7 5 5 5 5 5 5 4 4 3 2 2 2 2 2 2 2 2 2 2 3 4 5 5 5 5 5 5 4 5 5 4
8 9 9 6 4 5 5 6 3 5 7 8 8 6 6 6 6 7 7 6 5 4 4 5 4 4 3 3 3 2 2 2 2 1 1 1 2 2 3 3 4 4 4 5 5 5 4 4 4
Wind_Direction
244 234 166 50 44 42 62 102 95 72 52 62 77 86 87 68 107 128 125 134 133 136 138 137 135 131 127 123 119 116 113 111 109 108 106 106 107 109 110 110 109 109 108 108 107 107 107 107 108
246 207 87 49 64 40 21 93 93 91 106 100 80 81 77 71 85 106 118 134 133 134 134 137 136 133 130 127 124 122 119 117 115 113 111 111 111 112 113 112 111 111 111 110 110 110 110 109 109
272 114 79 63 64 172 200 105 109 104 104 93 87 71 76 106 112 111 134 137 131 131 133 141 137 135 132 131 128 126 125 123 121 119 117 116 115 115 115 115 114 114 113 112 112 112 112 111 108
41 46 53 67 278 241 188 149 118 107 88 73 88 72 70 105 116 128 135 135 128 129 133 141 139 137 135 134 133 132 131 129 126 124 122 121 119 117 119 119 117 117 116 116 116 115 114 111 107
69 70 50 11 320 311 150 122 119 106 91 85 87 88 65 77 116 129 134 133 131 131 134 140 140 140 140 139 138 136 135 133 131 128 127 124 122 121 122 122 121 120 120 119 119 118 116 114 107
56 67 67 359 319 317 96 124 109 103 107 104 99 96 84 124 127 135 137 136 136 135 134 140 144 144 144 143 142 142 141 138 136 134 132 129 127 127 127 126 125 124 124 123 123 122 119 113 102
108 87 151 237 267 277 141 132 115 117 124 134 132 108 116 142 139 139 137 136 135 136 138 141 147 147 147 146 145 145 145 143 141 139 137 135 133 133 132 131 130 131 130 129 129 128 123 114 101
144 101 336 275 216 230 141 112 118 124 127 136 137 129 149 157 142 134 133 133 134 139 145 144 142 141 145 148 149 149 149 147 147 146 144 143 142 140 139 136 137 138 139 139 138 136 130 119 104
113 84 242 234 198 200 137 114 108 105 120 137 129 130 147 144 138 134 134 133 140 148 154 151 145 144 143 149 156 154 153 153 152 151 151 145 135 136 140 147 146 145 147 148 149 148 143 125 99
120 160 223 222 198 173 154 136 142 117 108 101 104 120 138 140 143 145 150 153 157 161 167 162 157 155 157 161 147 148 151 149 147 150 145 136 139 154 153 161 155 154 154 156 161 163 154 118 73
180 204 229 235 223 182 140 137 134 130 138 156 150 150 149 147 149 153 159 162 164 168 170 167 166 164 166 153 154 154 148 151 156 159 153 147 148 155 147 152 156 156 158 153 163 166 165 155 148
246 258 245 230 216 170 145 134 127 147 164 160 153 152 152 154 158 162 165 167 167 171 173 170 171 171 171 159 164 164 164 171 172 173 165 156 155 155 158 160 164 165 160 170 178 202 213 222 216
265 270 268 247 198 164 120 127 127 132 138 141 143 147 155 161 162 165 165 167 168 173 173 174 173 173 168 162 171 172 175 181 180 176 175 168 164 165 166 169 176 181 177 185 190 199 219 232 219
267 286 296 279 238 136 122 125 120 142 138 140 148 158 165 167 165 164 165 168 171 171 174 174 173 172 165 168 178 175 176 180 180 180 181 175 169 167 167 172 178 183 185 188 185 186 185 186 152
318 335 337 291 227 183 100 77 157 155 143 147 156 164 170 172 170 171 173 170 169 168 168 169 168 167 167 172 179 177 175 176 182 186 182 173 167 167 169 172 177 185 185 180 165 160 142 148 140
350 5 329 281 205 199 118 179 190 156 152 158 166 171 175 183 179 172 170 166 163 160 163 169 169 168 170 168 172 172 172 172 178 183 178 174 170 168 166 168 177 174 163 155 152 146 129 123 127
351 314 271 289 242 173 130 175 185 172 160 166 170 173 179 183 181 173 168 164 165 161 161 167 164 168 171 167 165 163 162 170 174 176 174 175 173 169 164 171 173 159 149 152 162 137 138 142 145
262 296 297 283 263 155 151 171 175 180 167 172 172 172 179 181 183 174 165 163 163 162 162 165 164 167 166 156 142 140 148 166 172 176 177 175 176 169 161 168 173 157 146 149 146 140 143 151 158
258 285 284 276 259 153 161 169 180 176 172 171 173 174 174 180 173 170 165 163 158 160 163 166 165 167 163 159 157 156 167 170 175 183 181 178 177 169 165 172 169 163 162 169 161 148 147 143 121
262 275 282 296 297 124 163 184 178 174 182 177 174 172 167 163 157 167 161 166 167 167 173 172 172 172 172 171 163 159 155 170 177 183 183 181 177 174 177 171 174 171 166 169 164 148 144 154 144
272 250 249 259 329 21 97 358 276 198 163 168 168 167 166 165 164 173 174 175 170 172 175 178 177 173 171 162 142 128 111 113 154 183 190 192 183 182 181 179 175 176 171 176 179 162 154 164 186
263 260 248 258 60 305 106 201 282 211 163 174 176 166 169 168 169 177 176 178 180 179 172 169 170 170 168 162 161 163 170 182 192 187 185 189 187 184 185 183 181 181 179 181 187 175 164 155 173
234 256 265 217 112 25 12 118 283 272 176 192 185 174 178 175 170 174 178 177 174 167 169 166 167 170 169 170 172 173 182 188 175 171 177 191 195 192 188 184 183 184 182 186 189 177 174 167 170
232 6 18 41 66 14 259 145 260 229 202 187 180 175 174 167 163 164 166 153 146 148 159 165 167 173 174 175 177 177 181 183 179 185 189 196 199 200 197 187 184 185 183 186 191 188 183 183 178
112 84 29 1 14 258 265 154 239 238 191 169 164 168 167 160 157 155 151 150 151 153 161 166 167 174 176 176 181 183 185 188 194 196 197 195 196 202 202 195 190 189 190 189 186 187 192 187 181
186 139 155 186 216 278 330 223 265 271 136 137 139 149 157 157 154 157 157 154 160 163 164 164 166 175 177 181 188 189 190 194 204 202 197 199 204 208 200 195 195 194 193 196 189 192 197 189 192
170 176 170 141 168 331 300 306 334 59 93 111 119 131 152 160 159 157 152 150 152 157 164 164 165 170 176 183 192 191 194 200 207 204 199 201 203 205 200 195 199 199 198 196 187 194 198 190 197
169 164 108 121 157 234 285 257 219 189 148 136 124 137 147 154 152 145 147 149 148 151 150 148 157 168 171 174 183 185 192 198 197 190 196 198 200 200 189 193 194 195 195 191 185 187 192 190 203
177 150 130 135 155 156 208 263 234 184 162 145 136 145 147 141 138 136 136 140 143 139 136 142 153 146 147 153 153 148 160 172 167 175 198 204 201 188 187 188 186 190 189 183 179 185 188 195 208
176 178 150 156 208 160 160 258 304 156 141 131 129 129 134 130 136 131 128 121 122 118 127 138 143 138 139 139 138 145 146 138 143 176 193 180 184 187 192 184 181 187 184 178 176 186 186 192 208